Regional Weather Roundup
Issued by NWS Sterling, VA

Home | Current Version | Previous Version | Graphics & Text | Print | Product List | Glossary On
Versions: 1 2 3 4 5 6 7 8 9 10 11 12 13 14 15 16 17 18 19 20 21 22 23 24 25 26 27 28 29 30 31 32 33 34 35 36 37 38 39 40 41 42 43 44 45 46 47 48 49 50
000
ASUS41 KLWX 252110
RWRLWX

REGIONAL WEATHER ROUNDUP
NATIONAL WEATHER SERVICE BALTIMORE MD/WASHINGTON DC
500 PM EDT TUE APR 25 2017

Note: "FAIR" indicates few or no clouds below 12,000 feet
with no significant weather and/or obstructions to visibility.
 TC=TEMPERATURE CELSIUS

 * =Non NWS site. Station does not report precipitation (e.g. rain,
    snow, etc.), thunder, or fog.

DCZ001-MDZ009-015-VAZ040>042-051-053>054-252200-
WASHINGTON METRO

CITY           SKY/WX    TMP DP  RH WIND       PRES   REMARKS
WASHINGTON NAT CLOUDY    60  59  96 NE12      29.74R
DULLES         DRIZZLE   58  57  97 NE9       29.75S FOG
ANDREWS AFB    CLOUDY    59  58  96 NE10G20   29.72R
FT BELVOIR     CLOUDY    59  57  94 NE3       29.72F FOG
QUANTICO       CLOUDY    61  60  97 NE18      29.73R FOG
COLLEGE PARK*  CLOUDY    58  56  93 NE5       29.74R
LEESBURG*      DRIZZLE   59  59 100 NE7       29.77S
MANASSAS*      LGT RAIN  59  58  96 NE8       29.75R FOG

$$

MDZ006>007-011-014-252200-
BALTIMORE METRO

CITY           SKY/WX    TMP DP  RH WIND       PRES   REMARKS
BWI AIRPORT    DRIZZLE   58  57  97 NE18G26   29.75F FOG
MD SCIENCE CTR   N/A     60  55  83 MISG      29.77F
MARTIN STATE   CLOUDY    59  59 100 NE10G18   29.77F
ANNAPOLIS      FOG       60  58  92 VRB6      29.75R VSB 1
FORT MEADE*    CLOUDY    55  55 100 E8        29.78R

$$

MDZ012-015-019>023-252200-
MARYLAND EASTERN SHORE

CITY           SKY/WX    TMP DP  RH WIND       PRES   REMARKS
OCEAN CITY     CLOUDY    59  59 100 NE8       29.70R FOG
SALISBURY      CLOUDY    63  63 100 NE6       29.67F
BAY BRIDGE AP* LGT RAIN  59  57  94 NE9       29.73S FOG
CAMBRIDGE*     CLOUDY    63  61  94 NE6G15    29.69S
EASTON*        LGT RAIN  63  59  88 E13       29.76F

$$

MDZ017>025-252200-
SOUTHERN MARYLAND

CITY           SKY/WX    TMP DP  RH WIND       PRES   REMARKS
PATUXENT RIVER CLOUDY    64  64 100 NE13      29.67F
ST INIGOES     CLOUDY    65  62  90 NE8       29.66F
LEONARDTOWN*   CLOUDY    61  59  94 N3        29.70S

$$

MDZ003>005-252200-
NORTH CENTRAL MARYLAND

CITY           SKY/WX    TMP DP  RH WIND       PRES   REMARKS
FREDERICK*     LGT RAIN N/A N/A N/A N10       29.79F
HAGERSTOWN APT CLOUDY    57  55  93 NE8       29.79F
WESTMINSTER*   DRIZZLE   57  57 100 E15G21    29.77S

$$

MDZ501>502-252200-
WESTERN MARYLAND

CITY           SKY/WX    TMP DP  RH WIND       PRES   REMARKS
OAKLAND*       CLOUDY    50  50 100 E9        29.80F FOG
CUMBERLAND*    CLOUDY    57  57 100 N5        29.84F

$$

VAZ025>031-252200-
SHENANDOAH VALLEY

CITY           SKY/WX    TMP DP  RH WIND       PRES   REMARKS
WINCHESTER*    DRIZZLE   54  52  94 N5        29.78S
FRONT ROYAL*   CLOUDY    54  54 100 N9        29.77S
LURAY*         CLOUDY    55  54  94 N7        29.76F
NEW MARKET*    CLOUDY    55  53  92 NE8       29.77F
STAUNTON*      CLOUDY    54  53  95 N12       29.78S FOG
WAYNESBORO*    CLOUDY    53  53 100 N9        29.75F

$$

WVZ021-048>050-054>055-252200-
EASTERN WEST VIRGINIA PANHANDLE

CITY           SKY/WX    TMP DP  RH WIND       PRES   REMARKS
MARTINSBURG    CLOUDY    55  54  96 N10       29.78S FOG
PETERSBURG*    CLOUDY    57  55  92 NW6       29.80F

$$

VAZ036>039-050-252200-
CENTRAL FOOTHILLS

CITY           SKY/WX    TMP DP  RH WIND       PRES   REMARKS
CHARLOTTESVILL CLOUDY    61  56  83 NE15G23   29.72F
CULPEPER*      DRIZZLE   60  59  98 N9        29.74S
ORANGE*        CLOUDY    57  55  94 NE3       29.72S FOG
GORDONSVILLE*  CLOUDY    58  58  99 NE12G18   29.71S FOG
WARRENTON*     DRIZZLE   60  56  88 N8        29.74R

$$

VAZ055>057-252200-
NORTH AND CENTRAL PIEDMONT

CITY           SKY/WX    TMP DP  RH WIND       PRES   REMARKS
FREDERICKSBRG* CLOUDY    60  60 100 N8        29.70S FOG
STAFFORD*      DRIZZLE   59  59 100 N8G16     29.76R

$$

NCZ024-NYZ072-PAZ021-071-VAZ022-071-252200-
OTHER REGIONAL OBSERVATIONS

CITY           SKY/WX    TMP DP  RH WIND       PRES   REMARKS
NEW YORK CITY  RAIN      53  52  96 E16G32    29.98F FOG
PHILADELPHIA   LGT RAIN  56  54  93 NE17G28   29.82F FOG
PITTSBURGH     CLOUDY    61  57  87 E10       29.82S
ROANOKE        CLOUDY    61  54  77 NE13      29.75S
RICHMOND       CLOUDY    67  64  90 N10       29.65R
RALEIGH        PTSUNNY   69  59  70 VRB6      29.64S

$$

ANZ530>537-252200-
MARINE OBSERVATIONS

STATION/POSITION TIME  TEMP    WIND        PRES
                       AIR SEA DIR/SP/G
                 (UTC) (F)     (DEG/KT/KT) (MB)
THOMAS PT LIGHT  2100   58 56   20/ 12/ 13   N/A
BALT KEY BRIDGE  2048   59      50/ 16/ 20 1006.9F
COVE POINT       2048   60      10/  9/ 11 1005.6F
LEWISETTA        2048   63 60   60/  5/  9 1004.2F
SOLOMONS ISLAND  2048   62 60  360/  6/ 12   N/A
PINEY POINT      2048           30/  7/  9   N/A

$$




USA.gov is the U.S. government's official web portal to all federal, state and local government web resources and services.